• In Kazakhstan
  • List of Countries
  • For 7 days
  • Water Temperature
  • Weather Map
  • News
  • Weather Widgets
  • user-avatar
    Login

    Hourly Weather Lankaran

    Today, 25 August, Sunday

    Time Temperature Precipitation Wind Pressure Humidity
    00:00 +18°C° 0 mm 1 mps 634 mmHg 45%
    01:00 +18°C° 0 mm 1 mps 634 mmHg 47%
    02:00 +16°C° 0 mm 1 mps 633 mmHg 50%
    03:00 +15°C° 0 mm 0 mps 633 mmHg 51%
    04:00 +15°C° 0 mm 0 mps 634 mmHg 51%
    05:00 +16°C° 0 mm 0 mps 634 mmHg 50%
    06:00 +16°C° 0 mm 0 mps 634 mmHg 49%
    07:00 +21°C° 0 mm 1 mps 635 mmHg 44%
    08:00 +23°C° 0 mm 2 mps 636 mmHg 38%
    09:00 +26°C° 0 mm 3 mps 637 mmHg 31%
    10:00 +27°C° 0 mm 3 mps 637 mmHg 30%
    11:00 +27°C° 0 mm 4 mps 637 mmHg 29%
    12:00 +28°C° 0 mm 4 mps 637 mmHg 29%
    13:00 +28°C° 0 mm 4 mps 637 mmHg 30%
    14:00 +27°C° 0 mm 4 mps 636 mmHg 31%
    15:00 +27°C° 0 mm 4 mps 636 mmHg 32%
    16:00 +25°C° 0 mm 4 mps 635 mmHg 38%
    17:00 +22°C° 0 mm 3 mps 635 mmHg 43%
    18:00 +20°C° 0 mm 2 mps 634 mmHg 49%
    19:00 +19°C° 0 mm 2 mps 634 mmHg 50%
    20:00 +19°C° 0 mm 1 mps 634 mmHg 51%
    21:00 +16°C° 0 mm 1 mps 634 mmHg 52%
    22:00 +16°C° 0 mm 1 mps 634 mmHg 52%
    23:00 +16°C° 0 mm 1 mps 634 mmHg 51%

    Tomorrow, 26 August, Monday

    Time Temperature Precipitation Wind Pressure Humidity
    00:00 +16°C° 0 mm 1 mps 634 mmHg 50%
    01:00 +16°C° 0 mm 1 mps 634 mmHg 52%
    02:00 +14°C° 0 mm 0 mps 634 mmHg 53%
    03:00 +14°C° 0 mm 0 mps 633 mmHg 55%
    04:00 +14°C° 0 mm 0 mps 634 mmHg 53%
    05:00 +15°C° 0 mm 0 mps 634 mmHg 52%
    06:00 +16°C° 0 mm 1 mps 635 mmHg 51%
    07:00 +19°C° 0 mm 1 mps 635 mmHg 44%
    08:00 +20°C° 0 mm 2 mps 636 mmHg 37%
    09:00 +24°C° 0 mm 3 mps 637 mmHg 30%
    10:00 +23°C° 0 mm 4 mps 637 mmHg 30%
    11:00 +25°C° 0 mm 4 mps 637 mmHg 30%
    12:00 +25°C° 0 mm 5 mps 637 mmHg 30%
    13:00 +23°C° 0 mm 5 mps 637 mmHg 34%
    14:00 +23°C° 0 mm 5 mps 637 mmHg 38%
    15:00 +22°C° 0 mm 5 mps 636 mmHg 41%
    16:00 +20°C° 0 mm 4 mps 636 mmHg 49%
    17:00 +19°C° 0 mm 4 mps 635 mmHg 57%
    18:00 +17°C° 0 mm 4 mps 635 mmHg 64%
    19:00 +16°C° 0 mm 3 mps 635 mmHg 64%
    20:00 +13°C° 0 mm 3 mps 635 mmHg 64%
    21:00 +13°C° 0 mm 2 mps 635 mmHg 64%
    22:00 +13°C° 0 mm 2 mps 635 mmHg 68%
    23:00 +12°C° 0 mm 2 mps 635 mmHg 72%

    Day after tomorrow, 27 August, Tuesday

    Time Temperature Precipitation Wind Pressure Humidity
    00:00 +12°C° 0 mm 2 mps 635 mmHg 76%
    01:00 +12°C° 0.2 mm 2 mps 635 mmHg 79%
    02:00 +12°C° 0.2 mm 1 mps 635 mmHg 81%
    03:00 +12°C° 0.2 mm 1 mps 635 mmHg 83%
    04:00 +13°C° 0.2 mm 1 mps 636 mmHg 84%
    05:00 +13°C° 0.2 mm 1 mps 636 mmHg 84%
    06:00 +13°C° 0.2 mm 1 mps 636 mmHg 84%
    07:00 +15°C° 0.1 mm 2 mps 636 mmHg 74%
    08:00 +17°C° 0.1 mm 2 mps 636 mmHg 64%
    09:00 +18°C° 0.1 mm 3 mps 637 mmHg 54%
    10:00 +20°C° 0 mm 3 mps 637 mmHg 51%
    11:00 +21°C° 0 mm 3 mps 637 mmHg 48%
    12:00 +22°C° 0 mm 4 mps 637 mmHg 46%
    13:00 +22°C° 0 mm 4 mps 636 mmHg 48%
    14:00 +22°C° 0 mm 4 mps 635 mmHg 50%
    15:00 +22°C° 0 mm 3 mps 635 mmHg 52%
    16:00 +20°C° 0 mm 3 mps 634 mmHg 59%
    17:00 +19°C° 0 mm 3 mps 634 mmHg 67%
    18:00 +17°C° 0 mm 2 mps 633 mmHg 74%
    19:00 +17°C° 0 mm 2 mps 633 mmHg 75%
    20:00 +16°C° 0 mm 2 mps 633 mmHg 75%
    21:00 +16°C° 0 mm 2 mps 633 mmHg 75%
    22:00 +15°C° 0 mm 1 mps 633 mmHg 75%
    23:00 +15°C° 0 mm 1 mps 632 mmHg 76%

    28 August, Wednesday

    Time Temperature Precipitation Wind Pressure Humidity
    00:00 +14°C° 0 mm 1 mps 632 mmHg 76%
    01:00 +14°C° 0 mm 1 mps 632 mmHg 75%
    02:00 +13°C° 0 mm 1 mps 632 mmHg 74%
    03:00 +12°C° 0 mm 0 mps 632 mmHg 73%
    04:00 +12°C° 0 mm 0 mps 632 mmHg 72%
    05:00 +14°C° 0 mm 1 mps 632 mmHg 71%
    06:00 +14°C° 0 mm 1 mps 633 mmHg 70%
    07:00 +16°C° 0 mm 1 mps 633 mmHg 63%
    08:00 +18°C° 0 mm 2 mps 634 mmHg 57%
    09:00 +20°C° 0 mm 2 mps 635 mmHg 50%
    10:00 +21°C° 0 mm 3 mps 635 mmHg 49%
    11:00 +22°C° 0 mm 3 mps 635 mmHg 49%
    12:00 +22°C° 0 mm 4 mps 635 mmHg 48%
    13:00 +22°C° 0 mm 4 mps 635 mmHg 51%
    14:00 +22°C° 0 mm 4 mps 634 mmHg 53%
    15:00 +21°C° 0 mm 4 mps 634 mmHg 56%
    16:00 +20°C° 0 mm 3 mps 634 mmHg 61%
    17:00 +18°C° 0 mm 3 mps 633 mmHg 65%
    18:00 +17°C° 0 mm 2 mps 633 mmHg 70%
    19:00 +16°C° 0 mm 2 mps 633 mmHg 69%
    20:00 +15°C° 0 mm 1 mps 633 mmHg 68%
    21:00 +14°C° 0 mm 1 mps 633 mmHg 67%
    22:00 +14°C° 0 mm 1 mps 633 mmHg 64%
    23:00 +14°C° 0 mm 1 mps 633 mmHg 61%

    29 August, Thursday

    Time Temperature Precipitation Wind Pressure Humidity
    00:00 +13°C° 0 mm 1 mps 633 mmHg 58%
    01:00 +13°C° 0 mm 1 mps 633 mmHg 59%
    02:00 +12°C° 0 mm 0 mps 633 mmHg 59%
    03:00 +12°C° 0 mm 0 mps 633 mmHg 60%
    04:00 +12°C° 0 mm 0 mps 633 mmHg 59%
    05:00 +13°C° 0 mm 0 mps 634 mmHg 57%
    06:00 +13°C° 0 mm 0 mps 634 mmHg 56%
    07:00 +18°C° 0 mm 1 mps 635 mmHg 50%
    08:00 +19°C° 0 mm 2 mps 635 mmHg 44%
    09:00 +21°C° 0 mm 2 mps 636 mmHg 39%
    10:00 +22°C° 0 mm 3 mps 636 mmHg 40%
    11:00 +24°C° 0 mm 3 mps 636 mmHg 41%
    12:00 +25°C° 0 mm 4 mps 636 mmHg 42%
    13:00 +25°C° 0 mm 4 mps 635 mmHg 45%
    14:00 +23°C° 0 mm 4 mps 635 mmHg 48%
    15:00 +23°C° 0 mm 4 mps 634 mmHg 52%
    16:00 +21°C° 0 mm 4 mps 634 mmHg 61%
    17:00 +19°C° 0 mm 3 mps 633 mmHg 70%
    18:00 +17°C° 0 mm 2 mps 633 mmHg 79%
    19:00 +16°C° 0 mm 2 mps 633 mmHg 82%
    20:00 +15°C° 0 mm 2 mps 633 mmHg 86%
    21:00 +15°C° 0 mm 2 mps 634 mmHg 90%
    22:00 +14°C° 0 mm 2 mps 634 mmHg 91%
    23:00 +14°C° 0 mm 2 mps 634 mmHg 92%

    30 August, Friday

    Time Temperature Precipitation Wind Pressure Humidity
    00:00 +14°C° 0 mm 2 mps 634 mmHg 92%
    01:00 +14°C° 0.1 mm 2 mps 633 mmHg 92%
    02:00 +14°C° 0.1 mm 2 mps 633 mmHg 91%
    03:00 +14°C° 0.1 mm 2 mps 633 mmHg 91%
    04:00 +14°C° 0.2 mm 2 mps 634 mmHg 91%
    05:00 +14°C° 0.2 mm 2 mps 634 mmHg 92%
    06:00 +14°C° 0.2 mm 2 mps 634 mmHg 92%
    07:00 +15°C° 0.3 mm 2 mps 634 mmHg 90%
    08:00 +16°C° 0.3 mm 2 mps 634 mmHg 87%
    09:00 +16°C° 0.3 mm 3 mps 635 mmHg 85%
    10:00 +16°C° 0.2 mm 3 mps 634 mmHg 84%
    11:00 +17°C° 0.2 mm 3 mps 634 mmHg 84%
    12:00 +17°C° 0.2 mm 4 mps 634 mmHg 83%
    13:00 +17°C° 0.6 mm 4 mps 634 mmHg 84%
    14:00 +15°C° 0.6 mm 4 mps 634 mmHg 85%
    15:00 +15°C° 0.6 mm 4 mps 634 mmHg 86%
    16:00 +16°C° 0.5 mm 3 mps 634 mmHg 88%
    17:00 +14°C° 0.5 mm 3 mps 633 mmHg 90%
    18:00 +14°C° 0.5 mm 3 mps 633 mmHg 92%
    19:00 +14°C° 0.2 mm 3 mps 633 mmHg 93%
    20:00 +13°C° 0.2 mm 3 mps 633 mmHg 94%
    21:00 +13°C° 0.2 mm 3 mps 633 mmHg 95%
    22:00 +14°C° 0.2 mm 2 mps 633 mmHg 95%
    23:00 +14°C° 0.2 mm 2 mps 633 mmHg 94%
    Show more